Weather History for YPPH - November, 2013

Change the Weather History Date:

Sunday, November 3, 2013

  Actual Average Record
Temperature  
Mean Temperature 74 °F -  
Max Temperature 91 °F 79 °F 98 °F (1997)
Min Temperature 58 °F 55 °F 42 °F (2005)
Cooling Degree Days 10    
Growing Degree Days 24 (Base 50)    
Moisture  
Dew Point 48 °F    
Average Humidity 41    
Maximum Humidity 63    
Minimum Humidity 15    
Precipitation  
Precipitation 0.00 in 0.03 in - ()
Sea Level Pressure  
Sea Level Pressure 30.03 in    
Wind  
Wind Speed 15 mph ()    
Max Wind Speed 22 mph    
Max Gust Speed 34 mph    
Visibility 17.6 miles    
Events Rain    
Averages and records for this station are not official NWS values.
T = Trace of Precipitation, MM = Missing Value Source: Averaged Metar Reports

Daily Weather History Graph

Daily Weather History Graph

Search for Another Location

Airport or City:

Trip Planner

Search our weather history database for the weather conditions in past years. The results will help you decide how hot, cold, wet, or windy it might be!

Date:

Astronomy

Nov. 03, 2013 Rise Set
Actual Time 5:17 AM AWST 6:42 PM AWST
Civil Twilight 4:51 AM AWST 7:08 PM AWST
Nautical Twilight 4:20 AM AWST 7:39 PM AWST
Astronomical Twilight 3:47 AM AWST 8:12 PM AWST
Moon 4:53 AM AWST (11/3) 6:31 PM AWST (11/3)
Length of Visible Light 14h 17m
Length of Day
13h 25m
Waning Crescent, 0% of the Moon is Illuminated
Nov 3
Waning Crescent
Nov 3
New
Nov 10
First Quarter
Nov 17
Full
Nov 26
Last Quarter

Hourly Weather History & Observations

Time (AWST) Temp. Heat Index Dew Point Humidity Pressure Visibility Wind Dir Wind Speed Gust Speed Precip Events Conditions
12:00 AM 62 °F - 44 °F 41% 30.14 in 19 mi ESE 12.7 mph - -   Partly Cloudy
12:00 AM 60.8 °F - 44.6 °F 55% 30.12 in - SE 12.7 mph - N/A   Clear
12:33 AM 60.8 °F - 44.6 °F 55% 30.12 in - East 18.4 mph 29.9 mph N/A   Clear
1:00 AM 60.8 °F - 44.6 °F 55% 30.09 in - East 19.6 mph 33.4 mph N/A   Clear
1:31 AM 60.8 °F - 44.6 °F 55% 30.09 in - East 17.3 mph 28.8 mph N/A   Clear
2:00 AM 60 °F - 44 °F 45% 30.11 in - East 16.1 mph - -  
2:00 AM 59.0 °F - 44.6 °F 59% 30.09 in - East 16.1 mph - N/A   Clear
2:09 AM 59.0 °F - 44.6 °F 59% 30.09 in - East 18.4 mph 32.2 mph N/A   Clear
2:30 AM 59.0 °F - 44.6 °F 59% 30.09 in - East 18.4 mph - N/A   Clear
2:39 AM 59.0 °F - 44.6 °F 59% 30.09 in - East 20.7 mph 33.4 mph N/A   Clear
3:00 AM 59 °F - 45 °F 48% 30.10 in 19 mi East 20.7 mph - -   Partly Cloudy
3:04 AM 59.0 °F - 44.6 °F 59% 30.09 in - East 18.4 mph 29.9 mph N/A   Clear
3:30 AM 59.0 °F - 44.6 °F 59% 30.09 in - East 20.7 mph 32.2 mph N/A   Clear
4:00 AM 59.0 °F - 44.6 °F 59% 30.09 in - East 20.7 mph 32.2 mph N/A   Clear
4:30 AM 59.0 °F - 44.6 °F 59% 30.09 in - East 19.6 mph 34.5 mph N/A   Clear
5:00 AM 59 °F - 46 °F 51% 30.11 in - East 18.4 mph - -  
5:00 AM 59.0 °F - 46.4 °F 63% 30.09 in - East 18.4 mph 29.9 mph N/A   Clear
5:30 AM 59.0 °F - 44.6 °F 59% 30.09 in - ENE 17.3 mph 32.2 mph N/A   Clear
6:00 AM 59 °F - 45 °F 50% 30.11 in 19 mi East 20.7 mph - -   Partly Cloudy
6:00 AM 59.0 °F - 44.6 °F 59% 30.09 in - East 20.7 mph 33.4 mph N/A   Clear
6:37 AM 60.8 °F - 46.4 °F 59% 30.12 in - ENE 18.4 mph 29.9 mph N/A   Clear
7:00 AM 60.8 °F - 46.4 °F 59% 30.12 in - East 21.9 mph 33.4 mph N/A   Clear
7:36 AM 62.6 °F - 46.4 °F 55% 30.12 in - East 21.9 mph 34.5 mph N/A   Clear
8:00 AM 65 °F - 46 °F 39% 30.12 in - East 21.9 mph - -  
8:02 AM 64.4 °F - 46.4 °F 52% 30.09 in - East 21.9 mph 34.5 mph N/A   Clear
8:30 AM 66.2 °F - 46.4 °F 49% 30.09 in - East 20.7 mph - N/A   Clear
9:00 AM 68 °F - 47 °F 37% 30.11 in 19 mi East 19.6 mph - -   Partly Cloudy
9:00 AM 68.0 °F - 48.2 °F 49% 30.09 in - East 19.6 mph 31.1 mph N/A   Clear
9:30 AM 69.8 °F - 48.2 °F 46% 30.09 in - East 20.7 mph - N/A   Clear
9:52 AM 71.6 °F - 48.2 °F 43% 30.09 in - East 18.4 mph 31.1 mph N/A   Clear
10:00 AM 73.4 °F - 48.2 °F 41% 30.06 in - East 20.7 mph - N/A   Unknown
10:33 AM 75.2 °F - 48.2 °F 38% 30.06 in - East 19.6 mph 31.1 mph N/A   Clear
11:00 AM 77 °F - 49 °F 26% 30.08 in - East 20.7 mph - -  
11:05 AM 78.8 °F - 50.0 °F 36% 30.06 in - East 20.7 mph 32.2 mph N/A   Clear
11:30 AM 78.8 °F - 48.2 °F 34% 30.04 in - East 18.4 mph - N/A   Clear
12:00 PM 75 °F - 50 °F 30% 30.05 in 19 mi East 20.7 mph - - Rain Light Rain Showers
12:00 PM 75.2 °F - 50.0 °F 41% 30.04 in 6.2 mi East 20.7 mph - N/A Rain Light Rain Showers
12:14 PM 75.2 °F - 48.2 °F 38% 30.04 in - East 19.6 mph 31.1 mph N/A   Clear
12:30 PM 80.6 °F - 50.0 °F 34% 30.04 in - East 17.3 mph - N/A   Clear
1:00 PM 80.6 °F - 50.0 °F 34% 30.04 in - East 17.3 mph - N/A   Clear
1:30 PM 82.4 °F - 50.0 °F 32% 30.01 in - East 17.3 mph - N/A   Clear
2:00 PM 86 °F - 52 °F 21% 30.00 in - ESE 12.7 mph - -  
2:00 PM 86.0 °F - 51.8 °F 31% 29.98 in - ESE 12.7 mph - N/A   Clear
2:30 PM 87.8 °F - 51.8 °F 29% 29.98 in - ESE 13.8 mph - N/A   Clear
3:00 PM 89 °F - 52 °F 19% 29.97 in 19 mi East 11.5 mph - -   Partly Cloudy
3:00 PM 87.8 °F - 51.8 °F 29% 29.95 in - East 11.5 mph - N/A   Clear
3:30 PM 89.6 °F - 51.8 °F 27% 29.95 in - East 11.5 mph - N/A   Clear
4:00 PM 91.4 °F - 48.2 °F 23% 29.95 in - ENE 12.7 mph - N/A   Clear
4:30 PM 91.4 °F - 48.2 °F 23% 29.95 in - ENE 12.7 mph - N/A   Clear
5:00 PM 90 °F - 48 °F 15% 29.95 in - East 10.4 mph - -  
5:00 PM 89.6 °F - 48.2 °F 24% 29.95 in - East 10.4 mph - N/A   Clear
5:30 PM 89.6 °F - 48.2 °F 24% 29.95 in - East 12.7 mph - N/A   Clear
6:00 PM 87 °F - 51 °F 20% 29.96 in 19 mi East 11.5 mph - -   Partly Cloudy
6:00 PM 86.0 °F - 51.8 °F 31% 29.95 in - East 11.5 mph - N/A   Clear
6:30 PM 84.2 °F - 51.8 °F 33% 29.95 in - East 9.2 mph - N/A   Clear
7:00 PM 80.6 °F 80.3 °F 53.6 °F 39% 29.95 in - East 8.1 mph - N/A   Clear
7:30 PM 80.6 °F 80.3 °F 53.6 °F 39% 29.95 in - East 4.6 mph - N/A   Clear
8:00 PM 78 °F - 53 °F 31% 29.96 in - NE 8.1 mph - -  
8:00 PM 78.8 °F - 53.6 °F 42% 29.95 in - NE 8.1 mph - N/A   Clear
8:30 PM 80.6 °F - 50.0 °F 34% 29.95 in - NE 8.1 mph - N/A   Clear
9:00 PM 80 °F - 48 °F 22% 29.97 in 19 mi NE 10.4 mph - -   Partly Cloudy
9:00 PM 80.6 °F - 48.2 °F 32% 29.95 in - NE 10.4 mph - N/A   Clear
9:30 PM 78.8 °F - 50.0 °F 36% 29.95 in - ENE 9.2 mph - N/A   Clear
10:00 PM 78.8 °F - 48.2 °F 34% 29.95 in - ENE 8.1 mph - N/A   Clear
10:30 PM 78.8 °F - 48.2 °F 34% 29.95 in - NE 10.4 mph - N/A   Clear
11:00 PM 79 °F - 49 °F 24% 29.96 in - ENE 12.7 mph - -  
11:00 PM 78.8 °F - 48.2 °F 34% 29.95 in - ENE 12.7 mph - N/A   Clear
11:30 PM 78.8 °F - 48.2 °F 34% 29.95 in - ENE 15.0 mph - N/A   Clear